Wind_Speed
13 14 14 14 14 14 15 15 15 15 15 14 15 15 15 15 15 16 16 17 18 18 19 19 19 19 20 21 22 23 24 26 27 27 27 28 28 29
13 13 13 13 13 14 15 15 15 15 15 15 15 15 15 16 16 17 18 19 19 19 19 20 20 20 20 21 22 23 23 25 26 27 28 29 29 29
12 13 13 14 14 14 14 15 15 15 15 15 15 15 16 16 17 17 17 18 18 19 20 20 20 21 21 21 22 23 24 24 26 27 27 28 29 29
12 13 13 14 14 14 14 14 14 14 14 15 15 16 16 16 16 16 16 16 17 18 19 20 20 21 21 22 23 23 24 25 26 26 27 27 28 28
12 13 13 14 14 14 14 13 13 14 15 15 15 16 16 17 17 17 17 17 18 19 19 19 20 21 21 22 23 24 24 25 26 26 26 27 27 28
12 13 13 13 14 14 13 13 13 14 15 15 16 16 16 16 16 17 18 18 18 19 20 20 20 21 22 23 24 24 25 25 25 25 26 26 27 27
12 13 13 13 14 13 12 13 13 14 15 16 16 16 16 16 17 17 17 18 19 19 20 20 20 21 22 23 24 24 25 25 25 25 25 25 26 26
13 13 13 13 12 13 13 14 14 15 15 15 16 16 16 16 16 16 17 17 18 19 20 20 21 22 22 23 23 23 24 24 24 24 24 24 24 25
13 13 12 12 13 13 13 13 14 14 15 15 15 15 15 16 16 16 17 17 18 19 20 20 21 21 21 22 22 22 22 22 23 23 24 24 24 25
12 12 13 13 14 14 14 14 14 14 15 15 14 15 15 16 16 17 17 18 18 19 19 19 20 21 21 21 21 21 21 22 21 22 22 23 24 24
12 12 13 13 14 14 14 14 14 15 14 14 14 15 15 16 16 16 17 18 17 18 18 19 20 20 21 20 20 20 20 21 21 21 22 23 23 24
11 12 12 12 13 14 14 14 14 14 14 14 14 14 15 16 16 16 17 18 18 18 19 19 20 20 21 20 20 20 20 20 21 21 22 22 23 24
12 12 12 12 12 13 14 14 14 14 14 14 14 15 16 16 16 17 18 18 19 19 19 19 20 20 20 20 20 20 20 21 21 22 22 23 23 24
12 12 13 13 13 14 14 14 14 14 14 14 14 15 16 16 17 17 18 19 19 19 19 19 20 20 20 20 20 21 21 21 21 22 22 22 23 24
12 12 13 14 15 15 15 15 14 14 14 14 15 16 16 17 17 18 19 19 18 18 19 20 20 21 21 21 21 21 21 21 21 22 22 22 22 23
13 13 14 14 14 15 15 15 14 14 15 15 16 16 17 17 18 18 18 19 19 19 20 20 21 21 21 22 22 21 21 21 21 22 22 23 23 23
14 15 15 15 15 15 16 15 14 15 15 16 17 17 17 17 17 18 19 20 20 21 21 21 21 21 22 22 22 22 22 22 22 22 23 23 23 23
15 16 16 16 16 17 16 16 15 15 16 16 17 17 17 17 18 18 19 21 21 21 21 21 21 22 23 22 23 23 23 23 23 23 23 23 22 22
16 16 16 17 17 17 17 16 16 16 15 16 16 16 16 18 19 19 20 20 21 21 21 22 22 22 23 23 23 23 23 23 23 23 23 22 22 21
17 17 16 16 16 17 17 16 16 16 16 17 17 17 17 18 19 19 20 20 20 20 21 22 22 22 22 23 24 24 24 24 23 22 22 21 21 21
17 16 16 17 17 17 17 17 16 16 16 17 17 17 17 18 19 19 20 20 20 21 21 22 22 22 22 23 24 24 24 23 22 21 21 20 20 21
17 17 17 17 17 17 17 16 16 16 16 16 17 17 18 18 19 19 20 20 21 21 22 22 22 22 22 22 22 22 23 22 22 21 20 20 20 20
18 18 18 17 17 16 16 16 16 16 16 16 16 16 17 17 18 19 20 21 22 22 23 23 23 22 22 23 22 22 22 22 22 21 19 19 20 20
Wind_Direction
268 268 266 266 266 266 268 271 272 270 268 267 267 268 266 268 271 270 269 267 267 269 270 272 273 273 272 271 269 268 268 266 266 266 267 267 268 267
269 265 265 264 265 266 268 271 271 269 266 268 268 269 269 269 271 272 272 271 270 271 273 274 273 275 276 275 273 272 271 270 269 269 268 267 268 268
266 266 267 266 267 269 271 271 269 267 268 270 271 271 273 273 274 274 274 273 272 274 275 277 275 275 276 277 278 277 276 274 272 271 270 269 269 269
265 268 269 267 268 269 270 270 268 267 269 270 273 273 273 275 276 276 278 276 276 278 278 279 277 278 279 279 279 278 277 276 275 274 274 273 272 271
267 268 269 269 269 269 269 269 268 267 269 270 273 274 274 275 277 278 279 279 280 280 281 280 279 280 281 281 281 280 279 278 277 276 276 274 272 272
273 273 271 271 270 269 268 269 269 270 271 271 273 274 276 277 279 280 281 282 283 282 282 282 281 283 284 282 282 282 282 280 278 278 277 275 274 273
277 277 276 273 274 272 272 271 272 273 275 274 273 276 278 280 279 280 283 286 286 285 286 286 284 285 287 287 286 284 283 282 280 279 278 277 275 275
276 277 277 274 276 275 277 276 276 275 276 276 276 277 278 279 278 280 285 289 290 291 290 289 287 287 289 290 289 288 287 284 281 279 279 278 277 276
276 277 276 273 274 275 278 279 279 279 278 278 279 279 278 278 278 280 284 289 293 295 293 292 291 289 291 290 289 289 288 286 285 282 279 279 279 278
277 276 275 273 273 274 279 280 282 283 280 279 278 277 276 277 278 280 284 290 292 296 296 294 293 294 295 293 291 291 289 288 287 285 282 281 279 278
278 278 279 278 274 275 280 281 283 286 283 280 279 278 279 279 280 281 286 292 295 296 296 296 297 297 297 294 292 293 293 292 290 289 287 285 282 280
277 279 279 279 279 279 282 283 283 285 283 280 281 282 284 284 283 284 288 293 295 297 298 298 298 298 298 297 296 295 294 293 291 290 290 289 286 283
277 277 278 280 284 284 284 284 285 284 282 281 282 284 285 286 286 288 291 293 295 296 297 298 298 297 297 298 298 296 294 293 293 292 291 290 288 286
276 278 280 281 282 286 289 287 285 284 283 282 283 284 286 287 287 289 294 296 296 297 297 298 299 298 298 297 298 297 295 293 293 293 293 293 291 288
279 279 281 284 284 286 289 289 287 284 282 282 283 285 286 288 289 291 295 296 295 296 298 298 299 300 299 299 300 298 296 296 295 295 294 294 295 293
280 281 282 284 285 286 287 287 289 290 289 286 285 286 286 289 292 293 295 297 295 295 297 298 299 300 299 299 300 299 298 297 297 297 296 295 296 297
281 283 285 285 287 286 286 286 288 290 292 290 289 287 287 289 291 294 295 299 298 296 296 297 298 298 298 299 300 299 297 298 299 298 297 296 295 295
280 282 285 287 286 287 287 285 287 289 291 290 290 290 288 289 292 294 296 297 298 297 297 298 299 299 298 298 299 298 297 297 297 298 298 296 296 296
279 280 283 286 287 288 289 289 289 290 292 293 293 292 291 292 294 296 298 299 300 300 300 299 298 299 298 299 299 299 298 297 297 297 297 297 297 296
279 279 281 285 287 288 290 290 290 290 289 292 294 294 294 294 296 299 299 299 301 301 302 302 300 299 297 297 298 299 299 299 298 297 296 295 296 296
279 280 281 282 285 287 287 288 290 292 292 292 294 294 293 294 297 300 302 303 303 303 304 304 304 302 299 298 298 299 300 300 298 297 296 294 293 294
278 280 282 282 283 285 286 287 288 291 293 293 293 293 294 295 297 300 302 304 304 305 306 305 305 305 304 303 303 302 301 300 300 298 297 297 296 295
277 280 281 281 283 284 285 286 287 289 291 292 293 295 297 298 299 302 304 305 305 304 304 305 305 305 304 303 303 302 301 301 301 300 299 299 298 296
Height
5802 5802 5801 5801 5801 5801 5801 5801 5801 5801 5801 5801 5800 5800 5800 5799 5799 5799 5799 5798 5798 5798 5797 5797 5796 5796 5795 5795 5795 5794 5794 5794 5794 5794 5794 5794 5794 5795
5798 5798 5797 5797 5797 5797 5797 5796 5796 5796 5796 5796 5796 5796 5795 5795 5795 5794 5794 5793 5793 5793 5792 5791 5791 5790 5789 5789 5788 5788 5787 5787 5787 5786 5786 5786 5786 5786
5794 5794 5794 5793 5793 5793 5792 5792 5792 5792 5792 5792 5791 5791 5791 5791 5790 5789 5788 5788 5787 5787 5786 5785 5785 5784 5783 5782 5782 5781 5780 5780 5779 5779 5778 5778 5778 5778
5790 5790 5789 5789 5789 5789 5788 5788 5788 5787 5787 5787 5787 5787 5786 5786 5785 5785 5783 5782 5782 5781 5780 5779 5779 5778 5777 5776 5775 5774 5773 5772 5771 5770 5770 5770 5769 5769
5787 5786 5786 5785 5785 5784 5784 5784 5783 5783 5783 5783 5782 5782 5782 5781 5781 5780 5778 5777 5776 5775 5774 5773 5772 5772 5770 5769 5768 5767 5765 5764 5763 5762 5762 5761 5761 5760
5783 5782 5782 5781 5781 5780 5780 5779 5779 5779 5778 5778 5778 5777 5777 5776 5776 5775 5774 5772 5771 5770 5769 5767 5766 5765 5764 5763 5761 5759 5758 5756 5755 5754 5754 5753 5752 5751
5779 5779 5778 5778 5777 5776 5776 5775 5775 5774 5774 5773 5773 5772 5772 5771 5771 5770 5769 5768 5766 5764 5763 5762 5760 5759 5757 5755 5754 5752 5750 5748 5747 5746 5745 5745 5744 5743
5775 5775 5774 5773 5773 5772 5772 5771 5771 5770 5769 5768 5768 5767 5767 5766 5766 5765 5764 5763 5762 5760 5757 5756 5754 5752 5750 5748 5746 5744 5742 5741 5740 5738 5738 5737 5736 5735
5771 5771 5770 5769 5769 5768 5767 5767 5766 5765 5765 5764 5763 5763 5762 5762 5761 5760 5759 5758 5757 5755 5752 5750 5748 5746 5744 5742 5740 5738 5736 5734 5733 5731 5730 5729 5728 5727
5767 5767 5766 5765 5765 5764 5763 5763 5762 5761 5760 5759 5758 5758 5757 5757 5756 5756 5755 5753 5752 5749 5747 5745 5742 5740 5737 5736 5734 5731 5730 5728 5726 5725 5723 5722 5721 5720
5764 5763 5762 5762 5761 5760 5759 5759 5758 5757 5755 5754 5754 5753 5752 5752 5751 5750 5749 5748 5746 5744 5742 5739 5737 5734 5732 5730 5728 5726 5724 5722 5720 5718 5717 5715 5713 5712
5760 5759 5759 5758 5757 5756 5755 5754 5753 5752 5751 5750 5749 5749 5748 5747 5746 5745 5744 5743 5741 5739 5737 5734 5732 5729 5727 5724 5722 5720 5718 5716 5714 5712 5710 5708 5706 5705
5756 5756 5755 5754 5753 5752 5751 5750 5749 5748 5746 5746 5745 5744 5743 5742 5741 5740 5739 5737 5735 5733 5731 5729 5726 5724 5721 5719 5717 5714 5712 5710 5708 5706 5704 5702 5700 5698
5753 5752 5751 5750 5750 5749 5748 5746 5745 5744 5742 5741 5741 5740 5739 5738 5736 5735 5734 5732 5730 5728 5726 5724 5721 5719 5716 5714 5712 5709 5706 5704 5702 5700 5698 5695 5693 5691
5750 5749 5748 5747 5746 5745 5744 5742 5741 5739 5738 5737 5736 5735 5734 5733 5732 5731 5729 5727 5725 5723 5721 5719 5716 5714 5711 5709 5706 5703 5701 5698 5696 5694 5691 5689 5687 5684
5746 5745 5744 5743 5742 5741 5739 5738 5736 5735 5733 5732 5731 5730 5729 5728 5727 5725 5724 5722 5720 5718 5716 5713 5711 5708 5706 5703 5700 5697 5695 5692 5690 5687 5685 5683 5680 5678
5742 5741 5740 5739 5738 5736 5735 5733 5732 5730 5729 5727 5726 5725 5724 5723 5722 5720 5718 5716 5714 5712 5710 5708 5705 5703 5700 5697 5694 5691 5689 5686 5684 5681 5679 5676 5674 5671
5738 5737 5735 5734 5733 5731 5730 5728 5727 5725 5724 5722 5721 5720 5719 5718 5717 5715 5713 5711 5709 5706 5704 5702 5699 5697 5694 5691 5689 5686 5683 5681 5678 5675 5673 5670 5668 5665
5733 5732 5730 5729 5728 5726 5725 5723 5722 5721 5719 5718 5716 5715 5714 5713 5711 5709 5707 5705 5703 5701 5698 5696 5693 5691 5688 5686 5683 5680 5677 5674 5671 5669 5666 5664 5662 5660
5727 5726 5725 5724 5722 5721 5720 5718 5717 5716 5714 5713 5712 5710 5709 5707 5706 5704 5702 5699 5697 5695 5692 5690 5687 5684 5681 5679 5676 5673 5670 5667 5665 5663 5660 5658 5656 5654
5722 5721 5720 5718 5717 5716 5715 5713 5712 5711 5709 5708 5707 5705 5704 5702 5701 5698 5696 5694 5692 5689 5686 5684 5681 5678 5675 5672 5670 5667 5664 5661 5659 5656 5654 5652 5650 5648
5716 5715 5714 5713 5711 5710 5709 5708 5707 5705 5704 5703 5702 5700 5698 5697 5695 5693 5691 5689 5686 5684 5681 5678 5675 5672 5669 5666 5663 5661 5658 5655 5653 5650 5648 5646 5644 5642
5710 5709 5708 5707 5706 5705 5704 5702 5701 5700 5699 5698 5697 5695 5694 5692 5690 5688 5686 5683 5681 5678 5675 5672 5669 5666 5663 5660 5657 5655 5652 5649 5647 5644 5643 5640 5638 5636